• In Romania
  • List of Countries
  • For 7 days
  • Water Temperature
  • Satellite Maps
  • Weather Map
  • Weather Widgets
  • user-avatar
    Login

    Hourly Weather Namibe

    Today, 28 February, Tuesday

    Time Temperature Precipitation Wind Pressure Humidity
    00:00 +27°C° 0 mm 2 mps 756 mmHg 68%
    01:00 +28°C° 0 mm 2 mps 756 mmHg 67%
    02:00 +28°C° 0 mm 2 mps 756 mmHg 67%
    03:00 +28°C° 0 mm 2 mps 756 mmHg 66%
    04:00 +28°C° 0 mm 2 mps 756 mmHg 66%
    05:00 +28°C° 0 mm 1 mps 756 mmHg 67%
    06:00 +27°C° 0 mm 1 mps 756 mmHg 68%
    07:00 +27°C° 0 mm 1 mps 756 mmHg 69%
    08:00 +28°C° 0.1 mm 1 mps 756 mmHg 66%
    09:00 +29°C° 0.1 mm 1 mps 757 mmHg 63%
    10:00 +30°C° 0.1 mm 2 mps 757 mmHg 60%
    11:00 +31°C° 0 mm 2 mps 757 mmHg 55%
    12:00 +34°C° 0 mm 3 mps 756 mmHg 51%
    13:00 +35°C° 0 mm 4 mps 756 mmHg 46%
    14:00 +35°C° 0 mm 5 mps 756 mmHg 50%
    15:00 +34°C° 0 mm 5 mps 755 mmHg 54%
    16:00 +33°C° 0 mm 6 mps 755 mmHg 57%
    17:00 +30°C° 0 mm 5 mps 755 mmHg 64%
    18:00 +29°C° 0 mm 5 mps 756 mmHg 70%
    19:00 +27°C° 0 mm 4 mps 756 mmHg 76%
    20:00 +27°C° 0 mm 4 mps 757 mmHg 77%
    21:00 +27°C° 0 mm 3 mps 757 mmHg 77%
    22:00 +27°C° 0 mm 3 mps 758 mmHg 78%
    23:00 +27°C° 0 mm 3 mps 757 mmHg 78%

    Tomorrow, 1 March, Wednesday

    Time Temperature Precipitation Wind Pressure Humidity
    00:00 +26°C° 0 mm 3 mps 757 mmHg 78%
    01:00 +26°C° 0 mm 3 mps 757 mmHg 78%
    02:00 +26°C° 0 mm 3 mps 757 mmHg 79%
    03:00 +26°C° 0 mm 3 mps 757 mmHg 80%
    04:00 +26°C° 0 mm 3 mps 756 mmHg 81%
    05:00 +26°C° 0 mm 3 mps 757 mmHg 81%
    06:00 +26°C° 0 mm 2 mps 757 mmHg 81%
    07:00 +26°C° 0 mm 2 mps 757 mmHg 82%
    08:00 +27°C° 0 mm 2 mps 757 mmHg 74%
    09:00 +29°C° 0 mm 2 mps 758 mmHg 67%
    10:00 +30°C° 0 mm 2 mps 758 mmHg 60%
    11:00 +31°C° 0 mm 3 mps 757 mmHg 54%
    12:00 +34°C° 0 mm 4 mps 757 mmHg 49%
    13:00 +35°C° 0 mm 5 mps 756 mmHg 44%
    14:00 +34°C° 0 mm 5 mps 756 mmHg 47%
    15:00 +34°C° 0 mm 6 mps 756 mmHg 49%
    16:00 +33°C° 0 mm 6 mps 755 mmHg 52%
    17:00 +30°C° 0 mm 6 mps 756 mmHg 58%
    18:00 +29°C° 0 mm 5 mps 756 mmHg 64%
    19:00 +27°C° 0 mm 5 mps 756 mmHg 70%
    20:00 +27°C° 0 mm 4 mps 757 mmHg 72%
    21:00 +27°C° 0 mm 4 mps 757 mmHg 74%
    22:00 +26°C° 0 mm 3 mps 758 mmHg 75%
    23:00 +26°C° 0 mm 3 mps 758 mmHg 76%

    Day after tomorrow, 2 March, Thursday

    Time Temperature Precipitation Wind Pressure Humidity
    00:00 +26°C° 0 mm 2 mps 758 mmHg 77%
    01:00 +26°C° 0 mm 2 mps 757 mmHg 78%
    02:00 +25°C° 0 mm 2 mps 757 mmHg 79%
    03:00 +25°C° 0 mm 2 mps 757 mmHg 80%
    04:00 +25°C° 0 mm 2 mps 756 mmHg 81%
    05:00 +25°C° 0 mm 2 mps 757 mmHg 81%
    06:00 +25°C° 0 mm 2 mps 757 mmHg 81%
    07:00 +25°C° 0 mm 2 mps 757 mmHg 81%
    08:00 +27°C° 0 mm 2 mps 757 mmHg 73%
    09:00 +28°C° 0 mm 2 mps 757 mmHg 66%
    10:00 +30°C° 0 mm 2 mps 758 mmHg 59%
    11:00 +31°C° 0 mm 2 mps 757 mmHg 53%
    12:00 +34°C° 0 mm 3 mps 757 mmHg 48%
    13:00 +35°C° 0 mm 4 mps 756 mmHg 43%
    14:00 +34°C° 0 mm 5 mps 756 mmHg 46%
    15:00 +33°C° 0 mm 5 mps 755 mmHg 50%
    16:00 +32°C° 0 mm 5 mps 755 mmHg 53%
    17:00 +30°C° 0 mm 5 mps 755 mmHg 60%
    18:00 +28°C° 0 mm 5 mps 756 mmHg 67%
    19:00 +27°C° 0 mm 4 mps 756 mmHg 73%
    20:00 +27°C° 0 mm 4 mps 757 mmHg 74%
    21:00 +27°C° 0 mm 3 mps 757 mmHg 75%
    22:00 +27°C° 0 mm 2 mps 758 mmHg 77%
    23:00 +27°C° 0 mm 2 mps 758 mmHg 76%

    3 March, Friday

    Time Temperature Precipitation Wind Pressure Humidity
    00:00 +27°C° 0 mm 2 mps 757 mmHg 75%
    01:00 +27°C° 0 mm 1 mps 757 mmHg 75%
    02:00 +26°C° 0 mm 1 mps 757 mmHg 76%
    03:00 +26°C° 0 mm 1 mps 756 mmHg 77%
    04:00 +26°C° 0 mm 1 mps 756 mmHg 78%
    05:00 +26°C° 0 mm 1 mps 756 mmHg 78%
    06:00 +26°C° 0 mm 1 mps 757 mmHg 79%
    07:00 +26°C° 0 mm 1 mps 757 mmHg 79%
    08:00 +27°C° 0 mm 1 mps 757 mmHg 72%
    09:00 +29°C° 0 mm 2 mps 757 mmHg 65%
    10:00 +30°C° 0 mm 2 mps 757 mmHg 58%
    11:00 +33°C° 0 mm 3 mps 757 mmHg 54%
    12:00 +34°C° 0 mm 4 mps 756 mmHg 51%
    13:00 +35°C° 0 mm 5 mps 756 mmHg 48%
    14:00 +34°C° 0 mm 5 mps 755 mmHg 50%
    15:00 +34°C° 0 mm 5 mps 755 mmHg 53%
    16:00 +33°C° 0 mm 6 mps 754 mmHg 56%
    17:00 +32°C° 0 mm 5 mps 754 mmHg 62%
    18:00 +29°C° 0 mm 5 mps 755 mmHg 68%
    19:00 +28°C° 0 mm 4 mps 755 mmHg 75%
    20:00 +27°C° 0 mm 3 mps 756 mmHg 75%
    21:00 +27°C° 0 mm 3 mps 756 mmHg 76%
    22:00 +27°C° 0 mm 2 mps 757 mmHg 77%
    23:00 +27°C° 0 mm 2 mps 756 mmHg 77%

    4 March, Saturday

    Time Temperature Precipitation Wind Pressure Humidity
    00:00 +27°C° 0 mm 2 mps 756 mmHg 77%
    01:00 +26°C° 0 mm 2 mps 756 mmHg 78%
    02:00 +26°C° 0 mm 2 mps 755 mmHg 78%
    03:00 +26°C° 0 mm 2 mps 755 mmHg 79%
    04:00 +26°C° 0 mm 1 mps 755 mmHg 79%
    05:00 +26°C° 0 mm 1 mps 755 mmHg 79%
    06:00 +26°C° 0 mm 1 mps 755 mmHg 80%
    07:00 +26°C° 0 mm 1 mps 756 mmHg 80%
    08:00 +27°C° 0 mm 2 mps 756 mmHg 74%
    09:00 +28°C° 0 mm 2 mps 756 mmHg 68%
    10:00 +29°C° 0 mm 2 mps 757 mmHg 62%
    11:00 +31°C° 0 mm 3 mps 756 mmHg 58%
    12:00 +33°C° 0 mm 3 mps 755 mmHg 54%
    13:00 +34°C° 0 mm 4 mps 755 mmHg 49%
    14:00 +34°C° 0 mm 5 mps 754 mmHg 51%
    15:00 +33°C° 0 mm 5 mps 754 mmHg 52%
    16:00 +33°C° 0 mm 6 mps 754 mmHg 54%
    17:00 +30°C° 0 mm 5 mps 754 mmHg 60%
    18:00 +29°C° 0 mm 5 mps 755 mmHg 65%
    19:00 +27°C° 0 mm 5 mps 755 mmHg 71%
    20:00 +27°C° 0 mm 4 mps 756 mmHg 72%
    21:00 +27°C° 0 mm 3 mps 756 mmHg 74%
    22:00 +27°C° 0 mm 3 mps 757 mmHg 76%
    23:00 +27°C° 0.1 mm 2 mps 756 mmHg 77%

    5 March, Sunday

    Time Temperature Precipitation Wind Pressure Humidity
    00:00 +26°C° 0.1 mm 2 mps 756 mmHg 77%
    01:00 +26°C° 0.1 mm 2 mps 756 mmHg 78%
    02:00 +26°C° 0.1 mm 2 mps 756 mmHg 78%
    03:00 +26°C° 0.1 mm 2 mps 756 mmHg 79%
    04:00 +26°C° 0.1 mm 1 mps 755 mmHg 79%
    05:00 +26°C° 0 mm 1 mps 756 mmHg 78%
    06:00 +26°C° 0 mm 1 mps 756 mmHg 78%
    07:00 +26°C° 0 mm 1 mps 757 mmHg 77%
    08:00 +28°C° 0 mm 1 mps 757 mmHg 68%
    09:00 +29°C° 0 mm 2 mps 757 mmHg 60%
    10:00 +31°C° 0 mm 2 mps 757 mmHg 51%
    11:00 +33°C° 0 mm 3 mps 756 mmHg 47%
    12:00 +35°C° 0 mm 3 mps 755 mmHg 43%
    13:00 +36°C° 0 mm 4 mps 755 mmHg 39%
    14:00 +36°C° 0 mm 5 mps 754 mmHg 43%
    15:00 +35°C° 0 mm 5 mps 754 mmHg 47%
    16:00 +35°C° 0 mm 6 mps 753 mmHg 51%
    17:00 +33°C° 0 mm 6 mps 754 mmHg 57%
    18:00 +30°C° 0 mm 5 mps 754 mmHg 64%
    19:00 +29°C° 0 mm 5 mps 755 mmHg 70%
    20:00 +28°C° 0 mm 5 mps 755 mmHg 70%
    21:00 +28°C° 0 mm 4 mps 756 mmHg 71%
    22:00 +28°C° 0 mm 4 mps 756 mmHg 71%
    23:00 +28°C° 0 mm 3 mps 756 mmHg 71%
    Show more